Regional Weather Roundup
Issued by NWS Kansas City/Pleasant Hill, MO

Home | Current Version | Previous Version | Graphics & Text | Print | Product List | Glossary Off
Versions: 1 2 3 4 5 6 7 8 9 10 11 12 13 14 15 16 17 18 19 20 21 22 23 24 25 26 27 28 29 30 31 32 33 34 35 36 37 38 39 40 41 42 43 44 45 46 47 48 49 50

014
ASUS43 KEAX 240910
RWREAX

WEATHER ROUNDUP FOR EASTERN KANSAS AND NORTHWEST MISSOURI
NATIONAL WEATHER SERVICE KANSAS CITY/PLEASANT HILL MO
400 AM CDT TUE OCT 24 2017

KSZ040-057-103>105-MOZ028-029-037-043-241000-
...KANSAS CITY METROPOLITAN AREA...

CITY           SKY/WX    TMP DP  RH WIND       PRES   REMARKS
K.C. INTL      CLEAR     49  34  56 NW14G21   29.99F
K.C. DOWNTOWN  PTCLDY    51  35  54 W13       30.00F
LEES SUMMIT    LGT RAIN  50  35  56 W16G25    30.00F
OLATHE - IXD   CLEAR     48  35  60 W12       30.04F
OLATHE - OJC   CLEAR     48  34  58 NW13G22   30.02F
LAWRENCE       PTCLDY    48  35  60 W13       30.05F

$$

MOZ001>008-011>017-020>025-030>033-038>040-044>046-053-054-241000-
...NORTHERN AND CENTRAL MISSOURI...

CITY           SKY/WX    TMP DP  RH WIND       PRES   REMARKS
ST. JOSEPH     LGT RAIN  50  35  56 NW20G31   29.99F
MOSBY            N/A     50  34  53 NW14G24   29.97S
WARRENSBURG    PTCLDY    48  34  57 W10       29.97F
WHITEMAN AFB   PTCLDY    50  35  55 W15       29.91F
CLINTON        CLOUDY    46  36  66 W7        29.99F
SEDALIA        CLOUDY    50  37  61 W14G22    29.95F
WARSAW         NOT AVBL
CHILLICOTHE      N/A     50  36  58 NW9G20    29.92F
KIRKSVILLE     PTCLDY    47  37  68 NW12      29.85F

$$

MOZ041-047>049-056>058-063>065-088>090-097-241000-
...EASTERN AND SOUTHERN MISSOURI...

CITY           SKY/WX    TMP DP  RH WIND       PRES   REMARKS
ST. LOUIS INTL CLOUDY    53  34  48 W22G32    29.80F
SPIRIT OF STL  CLOUDY    52  35  52 W14G22    29.81F
COLUMBIA       CLEAR     49  34  56 W14       29.89F
JEFFERSON CITY PTCLDY    50  33  52 NW12      29.91F
ROLLA          PTCLDY    48  32  53 W17       29.91F
OSAGE BEACH    PTCLDY    52  34  50 W12G22    29.95F
SPRINGFIELD    PTCLDY    48  34  58 W15G22    30.03F
BRANSON        CLOUDY    52  32  46 W9G22     30.06F
JOPLIN         CLEAR     49  35  58 W13       30.10F
WEST PLAINS    CLEAR     48  30  49 W8        29.99F

$$

IAZ060-094-KSZ022-034>040-054-083-096-NEZ052-066-093-241000-
...KANSAS...SOUTHEAST NEBRASKA AND IOWA...

CITY           SKY/WX    TMP DP  RH WIND       PRES   REMARKS
TOPEKA         CLEAR     50  33  52 W13       30.06F
MANHATTAN      CLEAR     50  29  44 W7        30.14F
EMPORIA        CLEAR     49  30  48 NW15G24   30.13F
CHANUTE        CLEAR     52  32  46 NW20G26   30.12F
WICHITA        CLEAR     49  27  42 NW20      30.23S
OMAHA          PTCLDY    46  30  53 NW28G38   30.03S
LINCOLN        CLEAR     48  27  44 MISG      30.12R
FALLS CITY     MOCLDY    50  26  39 NW28G41   30.02F
LAMONI         CLOUDY    49  36  61 NW20G32   29.88F
DES MOINES     LGT RAIN  44  40  85 NW23G40   29.86S

$$





USA.gov is the U.S. government's official web portal to all federal, state and local government web resources and services.